N5CSC Weather Reports


Display with metric or nautical units.
time (UTC)temp
F
wind
direction
speed
MPH
gust
MPH
rain 1hr
in
rain 24hr
in
rain mn
in
humidity
%
barometer
mb
20260506133025 75 134 1.0 3.0 0.00 0.00 0.00 82 1006.6
20260506131526 75 139 1.0 3.0 0.00 0.00 0.00 82 1006.6
20260506130023 75 179 0.0 2.0 0.00 0.00 0.00 82 1006.6
20260506124520 75 179 0.0 1.0 0.00 0.00 0.00 82 1006.7
20260506123020 74 179 0.0 1.0 0.00 0.00 0.00 82 1006.5
20260506121520 74 179 0.0 0.0 0.00 0.00 0.00 82 1006.4
20260506120020 74 179 0.0 1.0 0.00 0.00 0.00 82 1006.4
20260506114523 74 179 0.0 0.0 0.00 0.00 0.00 82 1006.3
20260506113019 74 179 0.0 1.0 0.00 0.00 0.00 81 1006.3
20260506111517 74 180 0.0 2.0 0.00 0.00 0.00 81 1006.3
20260506110017 74 180 0.0 0.0 0.00 0.00 0.00 81 1006.1
20260506104516 74 180 0.0 0.0 0.00 0.00 0.00 81 1006.0
20260506103016 74 180 0.0 0.0 0.00 0.00 0.00 81 1006.0
20260506101522 75 180 0.0 1.0 0.00 0.00 0.00 81 1006.0
20260506100012 75 180 0.0 3.0 0.00 0.00 0.00 81 1006.0
20260506094515 75 181 1.0 5.0 0.00 0.00 0.00 80 1005.9
20260506093009 76 169 1.0 4.0 0.00 0.00 0.00 80 1005.8
20260506091508 76 182 3.0 7.0 0.00 0.00 0.00 80 1005.8
20260506090008 76 184 2.0 6.0 0.00 0.00 0.00 80 1006.0
20260506084514 76 165 2.0 7.0 0.00 0.00 0.00 80 1006.1
20260506083003 76 176 2.0 4.0 0.00 0.00 0.00 79 1006.2
20260506081506 76 183 0.0 4.0 0.00 0.00 0.00 79 1006.1
20260506073105 77 173 2.0 6.0 0.00 0.00 0.00 79 1006.4
20260506071610 77 162 2.0 5.0 0.00 0.00 0.00 79 1006.3
20260506061550 77 153 4.0 8.0 0.00 0.00 0.00 79 1006.6
20260506044542 77 148 1.0 4.0 0.00 0.00 0.00 78 1006.5
20260506043042 77 154 2.0 8.0 0.00 0.00 0.00 78 1006.6
20260506041555 78 152 3.0 6.0 0.00 0.00 0.00 78 1006.4
20260506040041 78 130 2.0 7.0 0.00 0.00 0.00 77 1006.3
20260506034544 78 112 3.0 7.0 0.00 0.00 0.00 77 1006.0
20260506033040 78 142 2.0 5.0 0.00 0.00 0.00 76 1006.0
20260506031539 79 146 3.0 5.0 0.00 0.00 0.00 76 1005.8
20260506030038 79 151 2.0 5.0 0.00 0.00 0.00 75 1005.6
20260506024540 79 120 2.0 5.0 0.00 0.00 0.00 75 1005.5
20260506023038 80 116 3.0 5.0 0.00 0.00 0.00 74 1005.3
20260506021536 80 113 4.0 7.0 0.00 0.00 0.00 73 1004.7
20260506020036 81 113 2.0 6.0 0.00 0.00 0.00 73 1004.5
20260506014545 81 111 4.0 7.0 0.00 0.00 0.00 72 1004.5
20260506013038 82 117 2.0 5.0 0.00 0.00 0.00 71 1004.4
20260506011539 82 109 2.0 7.0 0.00 0.00 0.00 70 1004.0
20260506010034 83 115 2.0 7.0 0.00 0.00 0.00 68 1003.7
20260506004540 84 120 3.0 7.0 0.00 0.00 0.00 67 1003.6
20260506003033 84 113 3.0 5.0 0.00 0.00 0.00 66 1003.5
20260506001531 85 114 2.0 4.0 0.00 0.00 0.00 65 1003.4
20260506000039 85 113 4.0 8.0 0.00 0.00 0.00 64 1003.3
20260505234531 85 112 2.0 5.0 0.00 0.00 0.00 64 1003.2
20260505233030 86 115 4.0 7.0 0.00 0.00 0.00 63 1003.0
20260505231530 86 113 3.0 8.0 0.00 0.00 0.00 63 1003.1
20260505230033 87 113 3.0 7.0 0.00 0.00 0.00 63 1003.0
20260505224536 86 112 3.0 5.0 0.00 0.00 0.00 63 1003.1
20260505223039 86 111 2.0 7.0 0.00 0.00 0.00 63 1003.3
20260505221526 87 119 2.0 6.0 0.00 0.00 0.00 63 1003.3
20260505220035 87 190 3.0 7.0 0.00 0.00 0.00 63 1003.3
20260505214537 87 109 3.0 6.0 0.00 0.00 0.00 62 1003.7
20260505213028 86 180 2.0 6.0 0.00 0.00 0.00 65 1004.0
20260505211516 86 113 2.0 4.0 0.00 0.00 0.00 64 1004.3
20260505210016 86 165 3.0 8.0 0.00 0.00 0.00 67 1004.3
20260505204518 85 177 2.0 6.0 0.00 0.00 0.00 66 1004.7
20260505203008 85 115 1.0 5.0 0.00 0.00 0.00 67 1004.9
20260505201505 85 188 2.0 5.0 0.00 0.00 0.00 67 1005.2
20260505200007 85 175 4.0 7.0 0.00 0.00 0.00 68 1005.3
20260505194603 84 171 2.0 6.0 0.00 0.00 0.00 69 1005.5
20260505193056 83 175 1.0 4.0 0.00 0.00 0.00 70 1005.7
20260505191557 83 168 3.0 8.0 0.00 0.00 0.00 71 1006.0
20260505190107 82 146 1.0 7.0 0.00 0.00 0.00 72 1006.2
20260505184601 82 136 2.0 7.0 0.00 0.00 0.00 72 1006.3
20260505183053 82 196 4.0 9.0 0.00 0.00 0.00 73 1006.6
20260505181545 82 165 3.0 10.0 0.00 0.00 0.00 73 1006.7
20260505180046 81 164 2.0 9.0 0.00 0.00 0.00 75 1006.7
20260505174542 79 178 4.0 8.0 0.00 0.00 0.00 76 1006.9
20260505173041 79 153 3.0 7.0 0.00 0.00 0.00 77 1007.0
20260505171540 78 210 3.0 6.0 0.00 0.00 0.00 77 1006.9
20260505170035 77 166 3.0 7.0 0.00 0.00 0.00 78 1007.0
20260505164536 77 174 3.0 6.0 0.00 0.00 0.00 79 1007.1
20260505163030 76 174 4.0 7.0 0.00 0.00 0.00 80 1007.0
20260505161525 75 190 4.0 6.0 0.00 0.00 0.00 80 1007.2
20260505153027 74 180 2.0 8.0 0.00 0.00 0.00 81 1007.2
20260505151518 73 158 4.0 7.0 0.00 0.00 0.00 81 1007.0